N9EX Weather Reports


time (UTC)temp
C
wind
direction
speed
KPH
gust
KPH
rain 1hr
cm
rain 24hr
cm
rain mn
cm
humidity
%
barometer
mb
20260503194602 23 198 6.4 14.5 0.00 0.00 0.00 53 1013.9
20260503194056 23 202 6.4 14.5 0.00 0.00 0.00 53 1013.8
20260503193556 23 222 3.2 14.5 0.00 0.00 0.00 54 1013.9
20260503193056 23 270 6.4 14.5 0.00 0.00 0.00 61 1014.0
20260503192555 23 219 4.8 14.5 0.00 0.00 0.00 55 1014.0
20260503192055 23 180 4.8 11.3 0.00 0.00 0.00 55 1014.1
20260503191558 23 179 4.8 11.3 0.00 0.00 0.00 55 1014.1
20260503191058 22 0 4.8 12.9 0.00 0.00 0.00 56 1014.1
20260503190556 23 221 1.6 12.9 0.00 0.00 0.00 55 1014.1
20260503190055 23 232 6.4 12.9 0.00 0.00 0.00 55 1014.2
20260503185555 22 188 3.2 12.9 0.00 0.00 0.00 55 1014.2
20260503185056 22 220 8.0 12.9 0.00 0.00 0.00 55 1014.4
20260503184613 22 286 4.8 11.3 0.00 0.00 0.00 56 1014.3
20260503184056 22 197 3.2 11.3 0.00 0.00 0.00 57 1014.4
20260503183555 22 218 4.8 11.3 0.00 0.00 0.00 57 1014.5
20260503183101 22 236 3.2 12.9 0.00 0.00 0.00 59 1014.5
20260503182555 21 190 6.4 12.9 0.00 0.00 0.00 66 1014.6
20260503182055 21 227 3.2 8.0 0.00 0.00 0.00 59 1014.6
20260503181558 21 159 1.6 11.3 0.00 0.00 0.00 59 1014.6
20260503181056 21 167 3.2 11.3 0.00 0.00 0.00 60 1014.7
20260503180556 21 191 3.2 11.3 0.00 0.00 0.00 60 1014.7
20260503180058 21 197 3.2 11.3 0.00 0.00 0.00 60 1014.8
20260503175555 20 223 4.8 11.3 0.00 0.00 0.00 59 1014.9
20260503175056 20 203 4.8 11.3 0.00 0.00 0.00 59 1014.9
20260503174556 21 207 3.2 11.3 0.00 0.00 0.00 65 1015.0
20260503174054 20 160 3.2 9.7 0.00 0.00 0.00 59 1015.0
20260503173555 20 221 4.8 9.7 0.00 0.00 0.00 61 1015.1
20260503173056 20 217 1.6 6.4 0.00 0.00 0.00 59 1015.1
20260503172554 20 213 1.6 11.3 0.00 0.00 0.00 59 1015.1
20260503172055 20 199 1.6 11.3 0.00 0.00 0.00 59 1015.2
20260503171611 20 294 4.8 11.3 0.00 0.00 0.00 65 1015.3
20260503171059 21 266 1.6 8.0 0.00 0.00 0.00 55 1015.3
20260503170554 20 0 0.0 12.9 0.00 0.00 0.00 57 1015.1
20260503170105 20 0 3.2 12.9 0.00 0.00 0.00 58 1015.2
20260503150553 14 0 0.0 0.0 0.00 0.00 0.00 79 1015.5
20260503131058 8 0 0.0 0.0 0.00 0.00 0.00 90 1015.4
20260503130557 8 0 0.0 0.0 0.00 0.00 0.00 89 1015.4
20260503110554 9 0 0.0 0.0 0.00 0.00 0.00 88 1015.7
20260503090110 10 0 0.0 0.0 0.00 0.00 0.00 87 1015.8
20260503081552 11 0 0.0 0.0 0.00 0.00 0.00 86 1015.9
20260503081054 11 0 0.0 0.0 0.00 0.00 0.00 85 1015.9
20260503080552 11 0 0.0 0.0 0.00 0.00 0.00 85 1015.9
20260503080109 11 0 0.0 0.0 0.00 0.00 0.00 85 1015.7
20260503072553 11 0 0.0 0.0 0.00 0.00 0.00 84 1015.6
20260503072054 11 0 0.0 0.0 0.00 0.00 0.00 84 1015.6
20260503071608 11 0 0.0 0.0 0.00 0.00 0.00 84 1015.5
20260503071052 11 0 0.0 0.0 0.00 0.00 0.00 83 1015.6
20260503070553 12 0 0.0 0.0 0.00 0.00 0.00 83 1015.7
20260503055053 13 0 0.0 0.0 0.00 0.00 0.00 77 1015.4
20260503054600 13 0 0.0 0.0 0.00 0.00 0.00 76 1015.5
20260503054057 13 0 0.0 0.0 0.00 0.00 0.00 76 1015.5
20260503053553 14 0 0.0 0.0 0.00 0.00 0.00 75 1015.5
20260503053059 14 0 0.0 0.0 0.00 0.00 0.00 75 1015.6
20260503052553 14 0 0.0 0.0 0.00 0.00 0.00 75 1015.5
20260503052056 14 0 0.0 0.0 0.00 0.00 0.00 74 1015.6
20260503051557 15 0 0.0 0.0 0.00 0.00 0.00 73 1015.5
20260503051053 15 0 0.0 0.0 0.00 0.00 0.00 72 1015.5
20260503050555 15 0 0.0 0.0 0.00 0.00 0.00 72 1015.3
20260503050059 15 0 0.0 0.0 0.00 0.00 0.00 71 1015.4
20260503045554 15 0 0.0 0.0 0.00 0.00 0.00 70 1015.3
20260503045055 15 0 0.0 0.0 0.00 0.00 0.00 69 1015.3
20260503044558 15 0 0.0 0.0 0.00 0.00 0.00 69 1015.3
20260503044055 15 0 0.0 0.0 0.00 0.00 0.00 69 1015.2
20260503043559 16 0 0.0 0.0 0.00 0.00 0.00 67 1015.1
20260503043059 16 0 0.0 0.0 0.00 0.00 0.00 66 1014.9
20260503042557 16 0 0.0 0.0 0.00 0.00 0.00 64 1014.9
20260503042055 16 0 0.0 0.0 0.00 0.00 0.00 64 1014.9
20260503041604 16 0 0.0 0.0 0.00 0.00 0.00 63 1014.8
20260503041054 17 0 0.0 0.0 0.00 0.00 0.00 62 1014.7
20260503040554 17 0 0.0 0.0 0.00 0.00 0.00 61 1014.6
20260503040058 17 0 0.0 0.0 0.00 0.00 0.00 60 1014.5
20260503035554 17 0 0.0 0.0 0.00 0.00 0.00 59 1014.5
20260503035054 18 0 0.0 0.0 0.00 0.00 0.00 58 1014.3
20260503034553 18 0 0.0 0.0 0.00 0.00 0.00 54 1014.3
20260503034054 19 0 0.0 0.0 0.00 0.00 0.00 53 1014.2
20260503033555 19 0 0.0 0.0 0.00 0.00 0.00 57 1014.2
20260503033054 20 0 0.0 0.0 0.00 0.00 0.00 49 1014.1
20260503032557 20 0 0.0 3.2 0.00 0.00 0.00 49 1014.1
20260503032055 20 0 0.0 3.2 0.00 0.00 0.00 48 1014.0
20260503031555 20 0 0.0 0.0 0.00 0.00 0.00 49 1014.0
20260503031055 20 0 0.0 0.0 0.00 0.00 0.00 48 1013.9
20260503030555 21 0 0.0 3.2 0.00 0.00 0.00 46 1014.0
20260503025554 21 0 0.0 4.8 0.00 0.00 0.00 45 1013.9
20260503025056 21 291 1.6 9.7 0.00 0.00 0.00 44 1013.9
20260503024556 21 0 0.0 11.3 0.00 0.00 0.00 44 1013.8
20260503024055 22 273 3.2 12.9 0.00 0.00 0.00 43 1013.8
20260503023555 22 260 0.0 12.9 0.00 0.00 0.00 43 1013.8
20260503023107 22 280 3.2 12.9 0.00 0.00 0.00 42 1013.9
20260503022554 22 261 4.8 11.3 0.00 0.00 0.00 42 1013.9
20260503022058 22 294 1.6 16.1 0.00 0.00 0.00 41 1013.8
20260503021601 22 341 6.4 16.1 0.00 0.00 0.00 41 1013.8
20260503021055 22 273 6.4 16.1 0.00 0.00 0.00 40 1013.8
20260503020555 22 264 4.8 16.1 0.00 0.00 0.00 40 1013.8
20260503020059 22 272 6.4 16.1 0.00 0.00 0.00 39 1013.9
20260503015553 22 0 6.4 17.7 0.00 0.00 0.00 39 1013.9
20260503015053 22 286 4.8 17.7 0.00 0.00 0.00 40 1013.9
20260503014602 23 294 8.0 17.7 0.00 0.00 0.00 39 1013.9
20260503014053 23 281 4.8 16.1 0.00 0.00 0.00 39 1014.0
20260503013557 22 341 6.4 19.3 0.00 0.00 0.00 39 1014.0
20260503013101 23 335 3.2 27.4 0.00 0.00 0.00 40 1014.1
20260503012555 23 333 11.3 27.4 0.00 0.00 0.00 40 1014.0
20260503012053 23 54 9.7 17.7 0.00 0.00 0.00 41 1014.0
20260503011614 23 355 4.8 17.7 0.00 0.00 0.00 48 1014.0
20260503011053 23 344 6.4 19.3 0.00 0.00 0.00 43 1013.9
20260503010554 23 242 8.0 19.3 0.00 0.00 0.00 44 1014.0
20260503010059 23 340 3.2 19.3 0.00 0.00 0.00 45 1014.2
20260503005557 23 251 8.0 19.3 0.00 0.00 0.00 45 1014.2
20260503005053 23 355 4.8 19.3 0.00 0.00 0.00 48 1014.3
20260503004558 23 315 9.7 19.3 0.00 0.00 0.00 47 1014.3
20260503004054 23 340 4.8 19.3 0.00 0.00 0.00 52 1014.2
20260503003554 23 285 8.0 19.3 0.00 0.00 0.00 48 1014.2
20260503003053 23 260 9.7 17.7 0.00 0.00 0.00 48 1014.2
20260503002554 23 257 4.8 16.1 0.00 0.00 0.00 48 1014.2
20260503002054 24 338 4.8 16.1 0.00 0.00 0.00 49 1014.2
20260503001553 23 302 3.2 19.3 0.00 0.00 0.00 49 1014.2
20260503001055 23 339 8.0 19.3 0.00 0.00 0.00 49 1014.4
20260503000554 24 273 8.0 16.1 0.00 0.00 0.00 55 1014.4
20260503000104 24 333 4.8 19.3 0.00 0.00 0.00 49 1014.4
20260502235555 24 312 8.0 19.3 0.00 0.00 0.00 50 1014.4
20260502235053 24 0 4.8 19.3 0.00 0.00 0.00 50 1014.5
20260502234602 24 271 8.0 19.3 0.00 0.00 0.00 51 1014.6
20260502234053 24 265 4.8 17.7 0.00 0.00 0.00 51 1014.6
20260502233554 23 340 6.4 17.7 0.00 0.00 0.00 51 1014.6
20260502233055 24 338 8.0 17.7 0.00 0.00 0.00 51 1014.7
20260502232553 24 268 4.8 17.7 0.00 0.00 0.00 51 1014.7
20260502232056 23 323 9.7 17.7 0.00 0.00 0.00 52 1014.7
20260502231554 24 349 6.4 20.9 0.00 0.00 0.00 53 1014.7
20260502231055 24 319 3.2 20.9 0.00 0.00 0.00 54 1014.8
20260502230553 23 280 8.0 20.9 0.00 0.00 0.00 53 1014.8
20260502230055 23 269 8.0 17.7 0.00 0.00 0.00 54 1015.0
20260502225554 23 321 9.7 17.7 0.00 0.00 0.00 54 1015.0
20260502225054 23 206 8.0 17.7 0.00 0.00 0.00 54 1015.2
20260502224555 23 259 8.0 17.7 0.00 0.00 0.00 54 1015.2
20260502224058 23 288 8.0 17.7 0.00 0.00 0.00 53 1015.3
20260502223555 23 327 6.4 17.7 0.00 0.00 0.00 54 1015.4
20260502223053 23 293 6.4 17.7 0.00 0.00 0.00 54 1015.5
20260502222555 23 243 6.4 16.1 0.00 0.00 0.00 54 1015.5
20260502222054 23 331 8.0 17.7 0.00 0.00 0.00 54 1015.5
20260502221613 23 275 8.0 17.7 0.00 0.00 0.00 54 1015.6
20260502221054 23 255 6.4 17.7 0.00 0.00 0.00 52 1015.7
20260502220554 23 352 4.8 16.1 0.00 0.00 0.00 53 1015.7
20260502220108 24 316 6.4 16.1 0.00 0.00 0.00 53 1015.7
20260502215554 23 238 6.4 16.1 0.00 0.00 0.00 53 1015.7
20260502215055 23 5 3.2 16.1 0.00 0.00 0.00 60 1015.8
20260502214557 23 279 4.8 17.7 0.00 0.00 0.00 52 1015.8
20260502214055 22 355 1.6 17.7 0.00 0.00 0.00 56 1015.8
20260502213558 23 196 8.0 17.7 0.00 0.00 0.00 54 1015.9
20260502213100 23 263 6.4 14.5 0.00 0.00 0.00 55 1015.9
20260502212552 23 346 4.8 14.5 0.00 0.00 0.00 54 1016.1
20260502212058 23 324 3.2 14.5 0.00 0.00 0.00 56 1016.0
20260502211600 22 319 8.0 14.5 0.00 0.00 0.00 63 1016.1
20260502211056 22 227 6.4 14.5 0.00 0.00 0.00 57 1016.2
20260502210557 22 331 4.8 14.5 0.00 0.00 0.00 56 1016.3
20260502210120 22 352 4.8 14.5 0.00 0.00 0.00 56 1016.2
20260502205557 22 254 1.6 17.7 0.00 0.00 0.00 60 1016.3
20260502205054 21 360 8.0 17.7 0.00 0.00 0.00 61 1016.3
20260502204601 21 225 8.0 17.7 0.00 0.00 0.00 61 1016.3
20260502204054 21 253 6.4 17.7 0.00 0.00 0.00 60 1016.4
20260502203554 21 196 6.4 16.1 0.00 0.00 0.00 61 1016.3
20260502203056 21 264 4.8 16.1 0.00 0.00 0.00 62 1016.4
20260502202554 21 209 6.4 17.7 0.00 0.00 0.00 62 1016.5
20260502202057 21 227 6.4 19.3 0.00 0.00 0.00 62 1016.6
20260502201556 21 245 4.8 19.3 0.00 0.00 0.00 63 1016.7
20260502201056 21 242 9.7 19.3 0.00 0.00 0.00 68 1016.7
20260502200557 22 340 4.8 14.5 0.00 0.00 0.00 61 1016.7
20260502200124 21 351 4.8 16.1 0.00 0.00 0.00 60 1016.6
20260502195554 21 286 6.4 16.1 0.00 0.00 0.00 60 1016.8
20260502195054 21 233 9.7 16.1 0.00 0.00 0.00 60 1016.7